Terminal Aerodrome Forecast
Issued by NWS

Home | Current Version | Previous Version | Text Only | Print | Product List | Glossary On
Versions: 1 2 3 4 5 6 7 8 9 10 11 12 13 14 15 16 17 18 19 20 21 22 23 24 25 26 27 28 29 30 31 32 33 34 35 36 37 38 39 40 41 42 43 44 45 46 47 48 49 50
000
FTUS41 KCTP 012331
TAFBFD
TAF
KBFD 012331Z 0200/0224 28008G15KT P6SM SCT025
     FM020100 30006KT P6SM SCT025
     FM020400 30002KT 2SM BR BKN003
     FM020700 VRB03KT 1/4SM FG OVC001
     FM021400 35006KT P6SM SCT030=

USA.gov is the U.S. government's official web portal to all federal, state and local government web resources and services.